Regional Weather Roundup
Issued by NWS Northern Indiana

Home | Current Version | Previous Version | Graphics & Text | Print | Product List | Glossary On
Versions: 1 2 3 4 5 6 7 8 9 10 11 12 13 14 15 16 17 18 19 20 21 22 23 24 25 26 27 28 29 30 31 32 33 34 35 36 37 38 39 40 41 42 43 44 45 46 47 48 49 50
000
ASUS43 KIWX 240800
RWRIWX

KIWX WEATHER ROUNDUP
NATIONAL WEATHER SERVICE NORTHERN INDIANA
400 AM EDT MON JUL 24 2017

NOTE: "FAIR" INDICATES FEW OR NO CLOUDS BELOW 12,000 FEET WITH NO
SIGNIFICANT WEATHER AND/OR OBSTRUCTIONS TO VISIBILITY.

* THESE STATIONS ARE NOT UNDER NWS QUALITY CONTROL. THEY ALSO MAY NOT
  REPORT WEATHER SUCH AS PRECIPITATION OR FOG.

INZ001>027-240900-
NORTHERN INDIANA

CITY           SKY/WX    TMP DP  RH WIND       PRES   REMARKS
MICHIGAN CITY* CLOUDY    68  64  88 N13       29.91R
SOUTH BEND     MOCLDY    66  65  96 NW7       29.89R
GOSHEN         MOCLDY    68  63  84 N8        29.86S
MONTICELLO*    PTCLDY    66  65  95 NW3       29.87R
FORT WAYNE     PTCLDY    68  62  81 NW5       29.85R
PERU/GRISSOM   PTCLDY    67  65  94 NW5       29.85R

$$
INZ028>050-240900-
CENTRAL INDIANA

CITY           SKY/WX    TMP DP  RH WIND       PRES   REMARKS
LAFAYETTE      CLEAR     67  65  93 NW5       29.87R
KOKOMO*          N/A     66  63  90 MISG        N/A
MUNCIE*        CLEAR     71  68  90 NW6       29.85R
INDIANAPOLIS   CLEAR     69  67  93 W7        29.86S

$$
MIZ043>046-050>051-056>058-064>065-071>073-077>080-240900-
SOUTHWEST LOWER MICHIGAN

CITY           SKY/WX    TMP DP  RH WIND       PRES   REMARKS
BATTLE CREEK   CLEAR     65  63  93 NW6       29.88R
BENTON HARBOR  MOCLDY    68  61  78 VRB5      29.88S
COLDWATER*     CLEAR     64  64 100 W3        29.86R
HILLSDALE*     CLOUDY    64  61  88 NW5       29.85S
HOLLAND        CLEAR     64  60  87 VRB5      29.90R
KALAMAZOO      CLEAR     64  59  83 N6        29.88R
STURGIS*       CLEAR     65  64  95 CALM      29.86R
THREE RIVERS*  FAIR      65  63  91 NW6       29.88R

$$
OHZ001>008-015>018-024>025-240900-
NORTHWEST OHIO

CITY           SKY/WX    TMP DP  RH WIND       PRES   REMARKS
DEFIANCE       MOCLDY   N/A N/A N/A NW5       29.82S
FINDLAY        CLEAR     69  65  86 SW6       29.80S
TOLEDO EXPRESS PTCLDY    69  67  93 NW6       29.80S
TOLEDO METCALF PTCLDY    70  68  93 NW6       29.80F
LIMA           PTCLDY    68  67  96 W5        29.83S

$$
AND FOR LAKE MICHIGAN COASTAL AND OPEN LAKE BUOY OBSERVATIONS

STATION/POSITION TEMP    WIND        PRES    VSBY  WAVE
                 AIR SEA DIR/SP/G                  HT/PER
                 (F)     (DEG/KT/KT) (MB)    (MI)  (FT/S)
CALUMET HARBOR    69     350/ 12/ 16 1012.5S
MICHIGAN CITY     69     360/ 18/ 19   N/A
BURNS HARBOR      70      10/ 15/ 20 1012.9S
SAINT JOSEPH      69     360/ 12/ 18 1012.9
SOUTH LAKE BUOY   67 70   10/ 17/ 21 1012.3          5/ 5
4 MI NW BRIDGMAN  70 75   30/ 14/ 17 1012.2R         4/ 5
MICHIGAN CITY     70 75  360/ 16/ 19   N/A           4/ 4

$$
&&




USA.gov is the U.S. government's official web portal to all federal, state and local government web resources and services.